Location: Melbourne
(37.8666°S, 145.1333°E)
Time: 22:23:58
(UTC+11:00)

Iridium 72 - Visible Passes

Search period start: 22 December 2014 00:00
Search period end: 01 January 2015 00:00
Orbit: 776 x 779 km, 86.4° (Epoch: 21 December)

Date Brightness Start Highest point End Pass type
(mag) Time Alt. Az. Time Alt. Az. Time Alt. Az.
22 Dec 7.1 00:42:32 23° W 00:43:31 25° W 00:47:48 10° SSW visible
22 Dec 7.1 22:28:27 18° E 22:29:32 19° E 22:33:06 10° SE visible
23 Dec 6.2 00:08:54 41° WNW 00:09:49 45° W 00:14:53 10° S visible
23 Dec 5.5 23:35:16 61° N 23:36:14 86° W 23:41:33 10° S visible
24 Dec 5.8 23:01:36 42° NE 23:02:46 50° E 23:07:52 10° SSE visible
25 Dec 7.7 00:42:03 15° W 00:43:47 17° WSW 00:47:11 10° SW visible
25 Dec 6.7 22:27:56 23° ENE 22:29:26 27° E 22:33:49 10° SSE visible
26 Dec 6.9 00:08:23 26° WNW 00:10:00 31° W 00:14:40 10° SSW visible
26 Dec 7.4 21:54:14 12° ENE 21:56:13 15° ESE 21:58:59 10° SE visible
26 Dec 5.9 23:34:41 40° NW 23:36:20 59° W 23:41:33 10° S visible
27 Dec 5.5 23:00:59 41° NNE 23:02:48 74° E 23:08:05 10° S visible
28 Dec 8.1 00:42:25 10° W 00:44:06 11° WSW 00:45:47 10° SW visible
28 Dec 6.2 22:27:15 27° NE 22:29:23 39° E 22:34:15 10° SSE visible
29 Dec 7.5 00:07:42 16° WNW 00:10:12 22° WSW 00:14:14 10° SSW visible
29 Dec 7.0 21:53:30 15° ENE 21:56:05 21° E 21:59:58 10° SSE visible
29 Dec 6.6 23:33:57 25° NW 23:36:27 40° W 23:41:25 10° SSW visible
30 Dec 7.5 21:21:33 10° E 21:22:55 11° ESE 21:24:16 10° ESE visible
30 Dec 5.6 23:00:11 30° NNW 23:02:50 76° W 23:08:09 10° S visible
31 Dec 5.7 22:26:23 25° NNE 22:29:21 57° E 22:34:32 10° S visible
